Meteo Giornale » Osservazioni meteo Gran Bretagna » Brize Norton

ore: 01:50 - Osservazioni Meteo Brize Norton
Lat. 51° 45' N Lon. 1° 35' W Alt. 88 metri s.l.m.

coperto_pioggia Europe/London

14 °C

Pioggia

Temp. 24 Ore

11 °C

21 °C

Est/Sud-Est

11.1 Km/h

Dew point 12 °C

Umidità 87 %

Visibilità  10 Km

Il sole sorge alle ore 05:24

Il sole tramonta alle ore 21:00

Data e Ora Cielo e Fenomeni T °C DP °C Um. % Pres. hPa Vis. km Vento km/h
Oggi h: 01:50 coperto_pioggia Pioggia 14 12 87 1005 10 E/SE 11.1
Oggi h: 00:50 coperto_pioggia Pioggia Debole 14 12 87 1006 10 N 5.5
Oggi h: 00:20 coperto_pioggia Pioggia 14 11 82 1007 4 N 3.7
Ieri h: 23:50 coperto_pioggia Pioggia Debole 15 11 76 1007 10 S 9.3
Ieri h: 23:20 molto_nuvoloso Molto Nuvoloso 15 11 76 1008 10 N 5.5
Ieri h: 22:50 sereno Sereno 15 11 76 1008 10 N 5.5
Ieri h: 22:20 sereno Sereno 16 12 77 1008 10 N 1.8
Ieri h: 21:50 molto_nuvoloso Molto Nuvoloso 16 12 77 1008 10 N 3.7
Ieri h: 21:20 molto_nuvoloso Molto Nuvoloso 16 11 72 1009 10 N 5.5
Ieri h: 20:50 molto_nuvoloso Molto Nuvoloso 16 11 72 1009 10 O/SO 9.3
Ieri h: 20:21 molto_nuvoloso Molto Nuvoloso 16 11 72 1009 10 S/SO 13
Ieri h: 19:50 molto_nuvoloso Molto Nuvoloso 18 9 55 1009 10 SO 9.3
Ieri h: 18:50 molto_nuvoloso Molto Nuvoloso 19 8 48 1009 10 O/SO 11.1
Ieri h: 18:20 molto_nuvoloso Molto Nuvoloso 20 7 42 1009 10 SO 11.1
Ieri h: 17:50 molto_nuvoloso Molto Nuvoloso 20 6 39 1009 10 O/SO 13
Ieri h: 17:20 sereno Sereno 21 7 40 1009 10 O/SO 14.8
Ieri h: 16:50 sereno Sereno 21 7 40 1009 10 SO 14.8
Ieri h: 16:21 sereno Sereno 21 6 37 1009 10 O/SO 14.8
Ieri h: 15:50 sereno Sereno 21 6 37 1009 10 O/SO 16.7
Ieri h: 15:20 sereno Sereno 21 4 32 1009 10 O 18.5
Ieri h: 14:50 sereno Sereno 21 4 32 1010 10 O/SO 18.5
Ieri h: 14:20 sereno Sereno 21 6 37 1009 10 SO 22.2
Ieri h: 13:50 sereno Sereno 20 7 42 1010 10 O/SO 18.5
Ieri h: 13:20 nuvoloso Nuvoloso 19 7 45 1010 10 O 16.7
Ieri h: 12:50 nuvoloso Nuvoloso 20 7 42 1010 10 O 18.5
Ieri h: 12:20 nuvoloso Nuvoloso 20 7 42 1010 10 O 20.3
Ieri h: 11:50 poco_nuvoloso Poco Nuvoloso 19 8 48 1010 10 O/SO 18.5
Ieri h: 11:20 poco_nuvoloso Poco Nuvoloso 19 8 48 1010 10 O/SO 18.5
Ieri h: 10:50 poco_nuvoloso Poco Nuvoloso 18 7 48 1010 10 O 18.5
Ieri h: 10:20 poco_nuvoloso Poco Nuvoloso 18 8 51 1010 10 O/SO 16.7
Ieri h: 09:50 poco_nuvoloso Poco Nuvoloso 17 8 55 1010 10 O/SO 16.7
Ieri h: 09:20 poco_nuvoloso Poco Nuvoloso 17 9 59 1010 10 O/SO 11.1
Ieri h: 08:50 poco_nuvoloso Poco Nuvoloso 16 9 63 1010 10 O/SO 13
Ieri h: 08:20 poco_nuvoloso Poco Nuvoloso 14 9 71 1010 10 O/SO 11.1
Ieri h: 07:50 poco_nuvoloso Poco Nuvoloso 13 9 76 1009 10 SO 9.3
Ieri h: 06:50 sereno Sereno 12 10 87 1009 10 O/SO 9.3
Ieri h: 06:20 sereno Sereno 12 9 81 1009 10 O/SO 9.3
Ieri h: 05:50 sereno Sereno 11 10 93 1008 10 O/SO 9.3
Ieri h: 05:20 sereno Sereno 11 9 87 1008 10 SO 9.3
Ieri h: 04:50 sereno Sereno 11 9 87 1008 10 SO 7.4
Ieri h: 04:20 sereno Sereno 11 9 87 1008 10 N 3.7
Ieri h: 03:50 sereno Sereno 11 10 93 1008 10 N 1.8
Ieri h: 03:20 sereno Sereno 12 10 87 1008 10 N 5.5
Ieri h: 02:50 sereno Sereno 12 10 87 1008 10 SO 7.4